This is the latest recevied weather packets stored in our database for station/object KA6AKH-13. If no packets are shown the sender has not sent any weather packets the latest 10 day(s).
| Time | Temp. | Humidity | Pressure | Rain* | Wind** | Luminosity | Snow |
|---|---|---|---|---|---|---|---|
| 1778219748 | 10.56° C | 93% | 1012.2 hPa | 0 mm | - | - | - |
| 1778219679 | 10.56° C | 93% | 1012.2 hPa | 0 mm | - | - | - |
| 1778215990 | 11.11° C | 93% | 1011.8 hPa | 0 mm | - | - | - |
| 1778215359 | 11.11° C | 92% | 1011.7 hPa | 0 mm | - | - | - |
| 1778214759 | 10.56° C | 92% | 1011.6 hPa | 0 mm | - | - | - |
| 1778213499 | 11.11° C | 89% | 1011.5 hPa | 0 mm | - | - | - |
| 1778212899 | 11.11° C | 89% | 1011.3 hPa | 0 mm | - | - | - |
| 1778211048 | 11.67° C | 86% | 1011.3 hPa | 0 mm | - | - | - |
| 1778211009 | 11.67° C | 86% | 1011.3 hPa | 0 mm | - | - | - |
| 1778209809 | 11.67° C | 85% | 1011.2 hPa | 0 mm | - | - | - |
| 1778209209 | 12.22° C | 84% | 1011.3 hPa | 0 mm | - | - | - |
| 1778204289 | 12.78° C | 79% | 1010.9 hPa | 0 mm | - | - | - |
| 1778202658 | 13.33° C | 78% | 1010.7 hPa | 0 mm | - | - | - |
| 1778202459 | 13.33° C | 78% | 1010.7 hPa | 0 mm | - | - | - |
| 1778201229 | 13.33° C | 77% | 1010.4 hPa | 0 mm | - | - | - |
| 1778200029 | 13.89° C | 74% | 1010.2 hPa | 0 mm | - | - | - |
| 1778199399 | 13.89° C | 74% | 1010.1 hPa | 0 mm | - | - | - |
| 1778198169 | 14.44° C | 70% | 1009.8 hPa | 0 mm | - | - | - |
| 1778197539 | 14.44° C | 69% | 1009.7 hPa | 0 mm | - | - | - |
| 1778196909 | 14.44° C | 67% | 1009.6 hPa | 0 mm | - | - | - |
| 1778196309 | 15° C | 67% | 1009.5 hPa | 0 mm | - | - | - |
| 1778195679 | 15° C | 66% | 1009.4 hPa | 0 mm | - | - | - |
| 1778195079 | 15.56° C | 66% | 1009.2 hPa | 0 mm | - | - | - |
| 1778193849 | 16.11° C | 63% | 1009 hPa | 0 mm | - | - | - |
| 1778193219 | 16.67° C | 63% | 1008.9 hPa | 0 mm | - | - | - |
* Rain latest hour (hover to see other rain measurements)
** Current wind speed in m/s (hover to see current wind gust speed)